Location: Seattle
(47.6064°N, 122.3308°W)
Time: 13:51:36
(UTC-08:00)

SR - Pass Details

Date: 30 November 2020
Orbit: 575 x 880 km, 66.7° (Epoch: 23 January)

Event Time Altitude Azimuth Distance (km) Brightness Sun altitude
Rises 17:18:18 0° 181° (S) 2,795 ? -9.6°
Reaches altitude 10° 17:20:44 10° 168° (SSE) 1,923 ? -9.9°
Maximum altitude 17:24:20 27° 111° (ESE) 1,204 ? -10.5°
Enters shadow 17:27:08 15° 63° (ENE) 1,718 ? -10.9°
